This demonstration page uses our WeatherBlox Daily Observations layout. Learn more.

Left ArrowRight Arrow

44.8408, -93.29828

Hourly Observations for August 31, 2019

Temp ( °F °C ) Dew Point ( °F °C ) Humidity (%) Winds ( mph kmh ) Pressure ( in mb ) Visibility ( mi km ) Precip ( " mm )
12:53 am 00:53 Mostly Cloudy 61 16.1 50 10 67 67 Calm 30.26 1025 10 16 0.00 0.00
1:53 am 01:53 Mostly Cloudy 61 16.1 50 10 67 67 E 5 7 30.26 1025 10 16 0.00 0.00
2:53 am 02:53 Cloudy 61 16.1 51 10.6 70 70 ESE 6 9 30.25 1024 10 16 0.00 0.00
3:53 am 03:53 Cloudy 60 15.6 51 10.6 72 72 ESE 3 6 30.26 1025 10 16 0.00 0.00
4:53 am 04:53 Cloudy 59 15 52 11.1 78 78 SE 7 11 30.25 1024 10 16 0.00 0.00
5:53 am 05:53 Cloudy 59 15 52 11.1 78 78 ESE 6 9 30.25 1025 10 16 0.00 0.00
6:53 am 06:53 Cloudy 59 15 51 10.6 75 75 ESE 7 11 30.26 1025 10 16 0.00 0.00
7:53 am 07:53 Cloudy 59 15 52 11.1 78 78 SSE 5 7 30.26 1025 10 16 0.00 0.00
8:53 am 08:53 Cloudy 59 15 52 11.1 78 78 SSE 5 7 30.27 1025 10 16 0.00 0.00
9:53 am 09:53 Cloudy 62 16.7 52 11.1 70 70 Calm 30.29 1026 10 16 0.00 0.00
10:53 am 10:53 Cloudy 65 18.3 52 11.1 63 63 SSE 6 9 30.28 1025 10 16 0.00 0.00
11:53 am 11:53 Cloudy 68 20 52 11.1 57 57 VRB 6 9 30.27 1025 10 16 0.00 0.00
12:53 pm 12:53 Cloudy 68 20 51 10.6 55 55 SSW 7 11 30.27 1025 10 16 0.00 0.00
1:53 pm 13:53 Mostly Cloudy 69 20.6 53 11.7 57 57 SSW 3 6 30.26 1025 10 16 0.00 0.00
2:53 pm 14:53 Mostly Cloudy 71 21.7 49 9.4 46 46 SSE 12 19 30.24 1024 10 16 0.00 0.00
3:53 pm 15:53 Mostly Cloudy 71 21.7 49 9.4 46 46 SE 8 13 30.22 1023 10 16 0.00 0.00
4:53 pm 16:53 Cloudy 70 21.1 51 10.6 51 51 SSE 8 13 30.21 1023 10 16 0.00 0.00
5:53 pm 17:53 Cloudy 69 20.6 52 11.1 55 55 SE 8 13 30.20 1023 10 16 0.00 0.00
6:53 pm 18:53 Cloudy 69 20.6 53 11.7 57 57 SE 8 13 30.19 1022 10 16 0.00 0.00
7:53 pm 19:53 Cloudy 69 20.6 54 12.2 59 59 VRB 6 9 30.19 1022 10 16 0.00 0.00
8:53 pm 20:53 Cloudy 68 20 55 12.8 63 63 SW 6 9 30.20 1023 10 16 0.00 0.00
9:53 pm 21:53 Cloudy 67 19.4 55 12.8 66 66 SSW 5 7 30.20 1023 10 16 0.00 0.00
10:53 pm 22:53 Cloudy 66 18.9 55 12.8 68 68 S 8 13 30.19 1023 10 16 0.00 0.00
11:53 pm 23:53 Mostly Clear 64 17.8 54 12.2 70 70 SSE 7 11 30.19 1022 10 16 0.00 0.00

Powered by AerisWeather